JP7FSO Weather Reports


time (UTC)temp
C
wind
direction
speed
KPH
gust
KPH
rain 1hr
cm
rain 24hr
cm
rain mn
cm
humidity
%
barometer
mb
20260901014607 22 134 0.0 0.0 0.00 0.00 0.10 85 1009.9
20260901013036 22 162 0.0 0.0 0.00 0.00 0.10 86 1009.9
20260901011511 22 163 0.0 0.0 0.00 0.00 0.10 88 1010.0
20260901010120 22 158 0.0 0.0 0.00 0.00 0.10 89 1010.1
20260901004505 21 125 0.0 0.0 0.00 0.00 0.10 89 1010.3
20260901003057 21 139 0.0 0.0 0.00 0.00 0.10 90 1010.3
20260901001507 21 101 0.0 0.0 0.00 0.00 0.10 91 1010.3
20260901000105 21 122 0.0 0.0 0.00 0.00 0.10 92 1010.3
20260831234600 21 122 0.0 0.0 0.00 0.00 0.10 92 1010.3
20260831233013 21 110 0.0 0.0 0.00 0.00 0.10 92 1009.9
20260831231524 21 117 0.0 0.0 0.00 0.00 0.10 93 1010.0
20260831230017 21 94 0.0 0.0 0.00 0.00 0.10 92 1010.0
20260831224512 21 113 0.0 0.0 0.00 0.00 0.10 92 1010.0
20260831223107 21 104 0.0 0.0 0.00 0.00 0.10 92 1009.9
20260831221530 21 104 0.0 0.0 0.00 0.00 0.10 92 1010.2
20260831220105 21 104 0.0 0.0 0.00 0.00 0.10 91 1010.2
20260831214514 21 104 0.0 0.0 0.00 0.00 0.10 91 1009.9
20260831213009 21 104 0.0 0.0 0.00 0.00 0.10 90 1009.9
20260831211606 21 101 0.0 0.0 0.00 0.00 0.10 90 1009.7
20260831210027 20 256 0.0 0.0 0.00 0.00 0.05 89 1009.7
20260831204605 21 256 0.0 0.0 0.00 0.00 0.00 89 1009.9
20260831203016 21 269 0.0 0.0 0.00 0.00 0.00 89 1009.6
20260831201515 21 107 0.0 0.0 0.00 0.00 0.00 89 1008.8
20260831200025 21 107 0.0 0.0 0.00 0.00 0.00 89 1009.0
20260831194613 21 108 0.0 0.0 0.00 0.00 0.00 89 1008.9
20260831193022 21 107 0.0 0.0 0.00 0.00 0.00 89 1008.9
20260831191514 21 108 0.0 0.0 0.00 0.00 0.00 89 1008.9
20260831190040 21 108 0.0 0.0 0.00 0.00 0.00 88 1008.9
20260831184502 21 108 0.0 0.0 0.00 0.00 0.00 88 1008.8
20260831183018 21 107 0.0 0.0 0.00 0.00 0.00 88 1008.8
20260831181508 21 108 0.0 0.0 0.00 0.00 0.00 88 1008.8
20260831180056 21 110 0.0 0.0 0.00 0.00 0.00 88 1008.8
20260831174634 21 97 0.0 0.0 0.00 0.00 0.00 88 1009.1
20260831171509 21 97 0.0 0.0 0.00 0.00 0.00 88 1009.3
20260831170014 21 97 0.0 0.0 0.00 0.00 0.00 88 1009.0
20260831164521 21 97 0.0 0.0 0.00 0.00 0.00 88 1008.9
20260831163018 21 97 0.0 0.0 0.00 0.00 0.00 88 1008.8
20260831161512 21 97 0.0 0.0 0.00 0.00 0.00 88 1008.9
20260831160054 21 99 0.0 0.0 0.00 0.00 0.00 87 1009.0
20260831154524 21 99 0.0 0.0 0.00 0.00 0.00 87 1009.1
20260831153118 21 99 0.0 0.0 0.00 0.00 0.00 87 1009.3
20260831151515 21 99 0.0 0.0 0.00 0.00 0.00 86 1009.3
20260831144524 21 99 0.0 0.0 0.00 0.00 0.03 86 1009.3
20260831143055 21 99 0.0 0.0 0.00 0.00 0.03 85 1009.3
20260831140101 21 108 0.0 0.0 0.00 0.00 0.03 85 1009.6
20260831134516 21 102 0.0 0.0 0.00 0.00 0.03 84 1009.3
20260831133011 21 108 0.0 0.0 0.00 0.00 0.03 84 1009.3
20260831130008 21 109 0.0 0.0 0.00 0.00 0.03 83 1009.4
20260831124503 21 116 0.0 0.0 0.00 0.00 0.03 82 1009.3
20260831123014 22 191 0.0 0.0 0.00 0.00 0.03 82 1009.3
20260831121525 22 191 0.0 0.0 0.00 0.00 0.03 82 1009.4
20260831120032 22 185 0.0 0.0 0.00 0.00 0.03 81 1009.4
20260831114530 22 197 0.0 0.0 0.00 0.00 0.03 81 1009.4
20260831113017 22 199 0.0 0.0 0.00 0.00 0.03 81 1009.3
20260831111607 22 199 0.0 0.0 0.00 0.00 0.03 81 1009.4
20260831110013 22 160 0.0 0.0 0.00 0.00 0.03 81 1009.3
20260831104511 22 175 0.0 0.0 0.00 0.00 0.03 80 1009.3
20260831103110 22 207 0.0 0.0 0.00 0.00 0.03 80 1009.3
20260831101603 22 176 0.0 0.0 0.00 0.00 0.03 79 1009.2
20260831100008 23 188 0.0 0.0 0.00 0.00 0.03 78 1008.9
20260831094532 23 152 0.0 0.0 0.00 0.00 0.03 78 1008.5
20260831093141 23 158 0.0 0.0 0.00 0.00 0.03 77 1008.4
20260831091534 23 106 0.0 0.0 0.00 0.00 0.03 76 1008.3
20260831090059 23 160 0.0 0.0 0.00 0.00 0.03 76 1008.3
20260831084653 23 162 0.0 0.0 0.00 0.00 0.03 75 1008.0
20260831083014 23 165 0.0 0.0 0.00 0.00 0.03 75 1007.9
20260831081502 24 217 0.0 0.0 0.00 0.00 0.03 74 1007.9
20260831080122 24 181 0.0 0.0 0.00 0.00 0.03 74 1007.8
20260831074521 24 192 0.0 0.0 0.00 0.00 0.03 74 1007.8
20260831073013 24 177 0.0 0.0 0.00 0.00 0.03 73 1007.6
20260831070029 25 160 0.0 0.0 0.00 0.00 0.03 72 1007.3
20260831064556 25 145 0.0 0.0 0.00 0.00 0.03 71 1007.3
20260831063014 25 167 0.0 0.0 0.00 0.00 0.03 69 1007.3
20260831061516 26 134 0.0 0.0 0.00 0.00 0.03 68 1007.2
20260831054505 26 179 0.0 0.0 0.00 0.00 0.03 66 1007.2
20260831053104 27 239 0.0 0.0 0.00 0.00 0.03 64 1007.1
20260831051536 27 181 0.0 0.0 0.00 0.00 0.03 62 1007.1
20260831050024 27 153 1.6 0.0 0.00 0.00 0.03 60 1006.9
20260831044524 27 162 0.0 0.0 0.00 0.00 0.03 62 1007.1
20260831043023 27 172 0.0 0.0 0.00 0.00 0.03 63 1007.1
20260831041510 27 129 0.0 0.0 0.00 0.00 0.03 63 1007.1
20260831040015 27 174 0.0 0.0 0.00 0.00 0.03 65 1007.0
20260831034520 26 257 0.0 0.0 0.00 0.00 0.03 66 1007.2
20260831033009 26 209 0.0 0.0 0.00 0.00 0.03 66 1007.2
20260831031500 26 245 0.0 0.0 0.00 0.00 0.03 66 1007.2
20260831030008 26 263 0.0 0.0 0.00 0.00 0.03 66 1007.2
20260831023104 26 156 0.0 0.0 0.00 0.00 0.03 67 1007.2
20260831021556 26 178 0.0 0.0 0.00 0.00 0.03 66 1007.3
20260831020031 25 111 1.6 0.0 0.00 0.00 0.03 69 1007.2